,,PressureMeas_1m,,PRMeasQMR101_1,,RHStat155_1m_1,,SRMeasQMS101R_1m,,TAStat155_1m_1,,GenWind_1,,GenWind_1,
2019-08-28, 00:00:06,VALID,919.451,VALID,0.0,VALID,99.912,VALID,-0.007,VALID,19.504,INVALID,360.0,VALID,0.0,
2019-08-28, 00:01:06,VALID,919.471,VALID,0.0,VALID,99.915,VALID,-0.017,VALID,19.441,INVALID,360.0,VALID,0.0,
2019-08-28, 00:02:06,VALID,919.475,VALID,0.0,VALID,99.908,VALID,-0.007,VALID,19.43,INVALID,360.0,VALID,0.0,
2019-08-28, 00:03:06,VALID,919.487,VALID,0.0,VALID,99.912,VALID,-0.019,VALID,19.442,INVALID,360.0,VALID,0.0,
2019-08-28, 00:04:06,VALID,919.491,VALID,0.0,VALID,99.912,VALID,0.001,VALID,19.439,INVALID,360.0,VALID,0.0,
2019-08-28, 00:05:06,VALID,919.488,VALID,0.0,VALID,99.911,VALID,0.021,VALID,19.482,INVALID,360.0,VALID,0.0,
2019-08-28, 00:06:06,VALID,919.478,VALID,0.0,VALID,99.913,VALID,0.029,VALID,19.479,INVALID,360.0,VALID,0.0,
2019-08-28, 00:07:06,VALID,919.48,VALID,0.0,VALID,99.912,VALID,0.034,VALID,19.446,INVALID,360.0,VALID,0.0,
2019-08-28, 00:08:06,VALID,919.479,VALID,0.0,VALID,99.914,VALID,0.006,VALID,19.392,INVALID,360.0,VALID,0.0,
2019-08-28, 00:09:06,VALID,919.478,VALID,0.0,VALID,99.908,VALID,0.019,VALID,19.35,INVALID,360.0,VALID,0.0,
2019-08-28, 00:10:06,VALID,919.457,VALID,0.0,VALID,99.916,VALID,0.02,VALID,19.367,INVALID,360.0,VALID,0.0,
2019-08-28, 00:11:06,VALID,919.445,VALID,0.0,VALID,99.906,VALID,0.035,VALID,19.369,INVALID,360.0,VALID,0.0,
2019-08-28, 00:12:06,VALID,919.425,VALID,0.0,VALID,99.911,VALID,0.021,VALID,19.318,INVALID,360.0,VALID,0.0,
2019-08-28, 00:13:06,VALID,919.419,VALID,0.0,VALID,99.889,VALID,0.017,VALID,19.264,INVALID,360.0,VALID,0.0,
2019-08-28, 00:14:06,VALID,919.404,VALID,0.0,VALID,99.914,VALID,0.018,VALID,19.263,INVALID,360.0,VALID,0.0,
2019-08-28, 00:15:06,VALID,919.397,VALID,0.0,VALID,99.906,VALID,0.032,VALID,19.265,INVALID,360.0,VALID,0.0,
2019-08-28, 00:16:06,VALID,919.419,VALID,0.0,VALID,99.913,VALID,0.039,VALID,19.274,INVALID,360.0,VALID,0.0,
2019-08-28, 00:17:06,VALID,919.436,VALID,0.0,VALID,99.911,VALID,0.012,VALID,19.267,INVALID,360.0,VALID,0.0,
2019-08-28, 00:18:06,VALID,919.439,VALID,0.0,VALID,99.911,VALID,0.035,VALID,19.29,INVALID,360.0,VALID,0.0,
2019-08-28, 00:19:06,VALID,919.46,VALID,0.0,VALID,99.912,VALID,0.017,VALID,19.35,INVALID,360.0,VALID,0.0,
2019-08-28, 00:20:06,VALID,919.474,VALID,0.0,VALID,99.912,VALID,0.006,VALID,19.385,INVALID,360.0,VALID,0.0,
2019-08-28, 00:21:06,VALID,919.502,VALID,0.0,VALID,99.911,VALID,0.006,VALID,19.396,INVALID,360.0,VALID,0.0,
2019-08-28, 00:22:06,VALID,919.527,VALID,0.0,VALID,99.912,VALID,0.008,VALID,19.401,INVALID,360.0,VALID,0.0,
2019-08-28, 00:23:06,VALID,919.529,VALID,0.0,VALID,99.911,VALID,0.006,VALID,19.389,INVALID,360.0,VALID,0.0,
2019-08-28, 00:24:06,VALID,919.526,VALID,0.0,VALID,99.91,VALID,0.01,VALID,19.353,INVALID,360.0,VALID,0.0,
2019-08-28, 00:25:06,VALID,919.516,VALID,0.0,VALID,99.91,VALID,0.01,VALID,19.376,INVALID,360.0,VALID,0.0,
2019-08-28, 00:26:06,VALID,919.528,VALID,0.0,VALID,99.911,VALID,0.015,VALID,19.421,INVALID,360.0,VALID,0.0,
2019-08-28, 00:27:06,VALID,919.519,VALID,0.0,VALID,99.912,VALID,0.019,VALID,19.469,INVALID,360.0,VALID,0.0,
2019-08-28, 00:28:06,VALID,919.504,VALID,0.0,VALID,99.913,VALID,0.023,VALID,19.503,INVALID,360.0,VALID,0.0,
2019-08-28, 00:29:06,VALID,919.536,VALID,0.0,VALID,99.912,VALID,0.007,VALID,19.478,INVALID,360.0,VALID,0.0,
2019-08-28, 00:30:06,VALID,919.53,VALID,0.0,VALID,99.915,VALID,-0.002,VALID,19.485,INVALID,360.0,VALID,0.0,
2019-08-28, 00:31:06,VALID,919.532,VALID,0.0,VALID,99.911,VALID,0.018,VALID,19.455,INVALID,360.0,VALID,0.0,
2019-08-28, 00:32:06,VALID,919.536,VALID,0.0,VALID,99.913,VALID,0.011,VALID,19.364,INVALID,360.0,VALID,0.0,
2019-08-28, 00:33:06,VALID,919.551,VALID,0.0,VALID,99.914,VALID,0.007,VALID,19.33,INVALID,360.0,VALID,0.0,
2019-08-28, 00:34:06,VALID,919.534,VALID,0.0,VALID,99.913,VALID,-0.006,VALID,19.419,INVALID,360.0,VALID,0.0,
2019-08-28, 00:35:06,VALID,919.529,VALID,0.0,VALID,99.914,VALID,0.021,VALID,19.377,INVALID,360.0,VALID,0.0,
2019-08-28, 00:36:06,VALID,919.532,VALID,0.0,VALID,99.904,VALID,0.042,VALID,19.291,INVALID,360.0,VALID,0.0,
2019-08-28, 00:37:06,VALID,919.526,VALID,0.0,VALID,99.914,VALID,0.042,VALID,19.325,INVALID,360.0,VALID,0.0,
2019-08-28, 00:38:06,VALID,919.486,VALID,0.0,VALID,99.909,VALID,0.043,VALID,19.297,INVALID,360.0,VALID,0.0,
2019-08-28, 00:39:06,VALID,919.472,VALID,0.0,VALID,99.89,VALID,0.032,VALID,19.263,INVALID,360.0,VALID,0.0,
2019-08-28, 00:40:06,VALID,919.453,VALID,0.0,VALID,99.875,VALID,0.048,VALID,19.284,INVALID,360.0,VALID,0.0,
2019-08-28, 00:41:06,VALID,919.432,VALID,0.0,VALID,99.856,VALID,0.041,VALID,19.249,INVALID,360.0,VALID,0.0,
2019-08-28, 00:42:06,VALID,919.428,VALID,0.0,VALID,99.863,VALID,0.032,VALID,19.259,INVALID,360.0,VALID,0.0,
2019-08-28, 00:43:06,VALID,919.417,VALID,0.0,VALID,99.857,VALID,0.028,VALID,19.266,INVALID,360.0,VALID,0.0,
2019-08-28, 00:44:06,VALID,919.397,VALID,0.0,VALID,99.865,VALID,0.032,VALID,19.311,INVALID,360.0,VALID,0.0,
2019-08-28, 00:45:06,VALID,919.405,VALID,0.0,VALID,99.851,VALID,0.039,VALID,19.314,INVALID,360.0,VALID,0.0,
2019-08-28, 00:46:06,VALID,919.39,VALID,0.0,VALID,99.841,VALID,0.038,VALID,19.296,INVALID,360.0,VALID,0.0,
2019-08-28, 00:47:06,VALID,919.381,VALID,0.0,VALID,99.825,VALID,0.044,VALID,19.267,INVALID,360.0,VALID,0.0,
2019-08-28, 00:48:06,VALID,919.352,VALID,0.0,VALID,99.813,VALID,0.04,VALID,19.246,INVALID,360.0,VALID,0.0,
2019-08-28, 00:49:06,VALID,919.353,VALID,0.0,VALID,99.804,VALID,0.01,VALID,19.265,INVALID,360.0,VALID,0.0,
2019-08-28, 00:50:06,VALID,919.348,VALID,0.0,VALID,99.777,VALID,0.012,VALID,19.239,INVALID,360.0,VALID,0.0,
2019-08-28, 00:51:06,VALID,919.354,VALID,0.0,VALID,99.793,VALID,0.021,VALID,19.288,INVALID,360.0,VALID,0.0,
2019-08-28, 00:52:06,VALID,919.34,VALID,0.0,VALID,99.804,VALID,0.019,VALID,19.328,INVALID,360.0,VALID,0.0,
2019-08-28, 00:53:06,VALID,919.324,VALID,0.0,VALID,99.826,VALID,0.029,VALID,19.362,INVALID,360.0,VALID,0.0,
2019-08-28, 00:54:06,VALID,919.346,VALID,0.0,VALID,99.786,VALID,0.011,VALID,19.315,INVALID,360.0,VALID,0.0,
2019-08-28, 00:55:06,VALID,919.341,VALID,0.0,VALID,99.765,VALID,0.035,VALID,19.32,INVALID,360.0,VALID,0.0,
2019-08-28, 00:56:06,VALID,919.328,VALID,0.0,VALID,99.775,VALID,0.031,VALID,19.322,INVALID,360.0,VALID,0.0,
2019-08-28, 00:57:06,VALID,919.327,VALID,0.0,VALID,99.769,VALID,0.032,VALID,19.31,INVALID,360.0,VALID,0.0,
2019-08-28, 00:58:06,VALID,919.318,VALID,0.0,VALID,99.781,VALID,0.017,VALID,19.352,INVALID,360.0,VALID,0.0,
2019-08-28, 00:59:06,VALID,919.309,VALID,0.0,VALID,99.755,VALID,0.012,VALID,19.342,INVALID,360.0,VALID,0.0,
2019-08-28, 01:00:06,VALID,919.305,VALID,0.0,VALID,99.758,VALID,0.01,VALID,19.335,INVALID,360.0,VALID,0.0,
2019-08-28, 01:01:06,VALID,919.293,VALID,0.0,VALID,99.705,VALID,0.013,VALID,19.277,INVALID,360.0,VALID,0.0,
2019-08-28, 01:02:06,VALID,919.289,VALID,0.0,VALID,99.721,VALID,0.011,VALID,19.302,INVALID,360.0,VALID,0.0,
2019-08-28, 01:03:06,VALID,919.259,VALID,0.0,VALID,99.722,VALID,0.019,VALID,19.298,INVALID,360.0,VALID,0.0,
2019-08-28, 01:04:06,VALID,919.273,VALID,0.0,VALID,99.707,VALID,0.02,VALID,19.303,INVALID,360.0,VALID,0.0,
2019-08-28, 01:05:06,VALID,919.263,VALID,0.0,VALID,99.713,VALID,0.013,VALID,19.315,INVALID,360.0,VALID,0.0,
2019-08-28, 01:06:06,VALID,919.275,VALID,0.0,VALID,99.691,VALID,-0.004,VALID,19.296,INVALID,360.0,VALID,0.0,
2019-08-28, 01:07:06,VALID,919.243,VALID,0.0,VALID,99.687,VALID,-0.006,VALID,19.286,INVALID,360.0,VALID,0.0,
2019-08-28, 01:08:06,VALID,919.235,VALID,0.0,VALID,99.69,VALID,-0.015,VALID,19.277,INVALID,360.0,VALID,0.0,
2019-08-28, 01:09:06,VALID,919.208,VALID,0.0,VALID,99.695,VALID,-0.003,VALID,19.288,INVALID,360.0,VALID,0.0,
2019-08-28, 01:10:06,VALID,919.209,VALID,0.0,VALID,99.713,VALID,0.018,VALID,19.315,INVALID,360.0,VALID,0.0,
2019-08-28, 01:11:06,VALID,919.203,VALID,0.0,VALID,99.737,VALID,0.007,VALID,19.337,INVALID,360.0,VALID,0.0,
2019-08-28, 01:12:06,VALID,919.206,VALID,0.0,VALID,99.725,VALID,-0.014,VALID,19.32,INVALID,360.0,VALID,0.0,
2019-08-28, 01:13:06,VALID,919.195,VALID,0.0,VALID,99.727,VALID,-0.012,VALID,19.323,INVALID,360.0,VALID,0.0,
2019-08-28, 01:14:06,VALID,919.179,VALID,0.0,VALID,99.737,VALID,-0.011,VALID,19.341,INVALID,360.0,VALID,0.0,
2019-08-28, 01:15:06,VALID,919.16,VALID,0.0,VALID,99.723,VALID,-0.011,VALID,19.327,INVALID,360.0,VALID,0.0,
2019-08-28, 01:16:06,VALID,919.135,VALID,0.0,VALID,99.688,VALID,-0.025,VALID,19.302,INVALID,360.0,VALID,0.0,
2019-08-28, 01:17:06,VALID,919.112,VALID,0.0,VALID,99.685,VALID,-0.004,VALID,19.29,INVALID,360.0,VALID,0.0,
2019-08-28, 01:18:06,VALID,919.109,VALID,0.0,VALID,99.679,VALID,-0.0,VALID,19.288,INVALID,360.0,VALID,0.0,
2019-08-28, 01:19:06,VALID,919.103,VALID,0.0,VALID,99.668,VALID,0.002,VALID,19.282,INVALID,360.0,VALID,0.0,
2019-08-28, 01:20:06,VALID,919.079,VALID,0.0,VALID,99.674,VALID,0.009,VALID,19.269,INVALID,360.0,VALID,0.0,
2019-08-28, 01:21:06,VALID,919.059,VALID,0.0,VALID,99.668,VALID,0.009,VALID,19.28,INVALID,360.0,VALID,0.0,
2019-08-28, 01:22:06,VALID,919.077,VALID,0.0,VALID,99.663,VALID,0.004,VALID,19.294,INVALID,360.0,VALID,0.0,
2019-08-28, 01:23:06,VALID,919.055,VALID,0.0,VALID,99.648,VALID,-0.008,VALID,19.284,INVALID,360.0,VALID,0.0,
2019-08-28, 01:24:06,VALID,919.039,VALID,0.0,VALID,99.646,VALID,0.002,VALID,19.294,INVALID,360.0,VALID,0.0,
2019-08-28, 01:25:06,VALID,919.015,VALID,0.0,VALID,99.651,VALID,0.02,VALID,19.315,INVALID,360.0,VALID,0.0,
2019-08-28, 01:26:06,VALID,918.988,VALID,0.0,VALID,99.653,VALID,0.011,VALID,19.335,INVALID,360.0,VALID,0.0,
2019-08-28, 01:27:06,VALID,918.966,VALID,0.0,VALID,99.655,VALID,0.021,VALID,19.319,INVALID,360.0,VALID,0.0,
2019-08-28, 01:28:06,VALID,918.978,VALID,0.0,VALID,99.652,VALID,0.007,VALID,19.303,INVALID,360.0,VALID,0.0,
2019-08-28, 01:29:06,VALID,918.955,VALID,0.0,VALID,99.624,VALID,0.008,VALID,19.28,INVALID,360.0,VALID,0.0,
2019-08-28, 01:30:06,VALID,918.936,VALID,0.0,VALID,99.585,VALID,-0.008,VALID,19.238,INVALID,360.0,VALID,0.0,
2019-08-28, 01:31:06,VALID,918.917,VALID,0.0,VALID,99.543,VALID,0.014,VALID,19.225,INVALID,360.0,VALID,0.0,
2019-08-28, 01:32:06,VALID,918.881,VALID,0.0,VALID,99.555,VALID,0.003,VALID,19.236,INVALID,360.0,VALID,0.0,
2019-08-28, 01:33:06,VALID,918.858,VALID,0.0,VALID,99.563,VALID,0.01,VALID,19.264,INVALID,360.0,VALID,0.0,
2019-08-28, 01:34:06,VALID,918.837,VALID,0.0,VALID,99.556,VALID,-0.002,VALID,19.237,INVALID,360.0,VALID,0.0,
2019-08-28, 01:35:06,VALID,918.816,VALID,0.0,VALID,99.51,VALID,-0.007,VALID,19.203,INVALID,360.0,VALID,0.0,
2019-08-28, 01:36:06,VALID,918.785,VALID,0.0,VALID,99.468,VALID,-0.003,VALID,19.182,INVALID,360.0,VALID,0.0,
2019-08-28, 01:37:06,VALID,918.771,VALID,0.0,VALID,99.402,VALID,-0.003,VALID,19.173,INVALID,360.0,VALID,0.0,
2019-08-28, 01:38:06,VALID,918.731,VALID,0.0,VALID,99.387,VALID,-0.02,VALID,19.19,INVALID,360.0,VALID,0.0,
2019-08-28, 01:39:06,VALID,918.73,VALID,0.0,VALID,99.396,VALID,-0.012,VALID,19.202,INVALID,360.0,VALID,0.0,
2019-08-28, 01:40:06,VALID,918.721,VALID,0.0,VALID,99.428,VALID,0.008,VALID,19.207,INVALID,360.0,VALID,0.0,
2019-08-28, 01:41:06,VALID,918.713,VALID,0.0,VALID,99.445,VALID,0.0,VALID,19.209,INVALID,360.0,VALID,0.0,
2019-08-28, 01:42:06,VALID,918.683,VALID,0.0,VALID,99.434,VALID,0.01,VALID,19.193,INVALID,360.0,VALID,0.0,
2019-08-28, 01:43:06,VALID,918.689,VALID,0.0,VALID,99.444,VALID,0.016,VALID,19.168,INVALID,360.0,VALID,0.0,
2019-08-28, 01:44:06,VALID,918.676,VALID,0.0,VALID,99.409,VALID,0.015,VALID,19.137,INVALID,360.0,VALID,0.0,
2019-08-28, 01:45:06,VALID,918.667,VALID,0.0,VALID,99.417,VALID,0.015,VALID,19.129,INVALID,360.0,VALID,0.0,
2019-08-28, 01:46:06,VALID,918.666,VALID,0.0,VALID,99.459,VALID,0.013,VALID,19.133,INVALID,360.0,VALID,0.0,
2019-08-28, 01:47:06,VALID,918.642,VALID,0.0,VALID,99.475,VALID,0.008,VALID,19.156,INVALID,360.0,VALID,0.0,
2019-08-28, 01:48:06,VALID,918.621,VALID,0.0,VALID,99.537,VALID,0.024,VALID,19.194,INVALID,360.0,VALID,0.0,
2019-08-28, 01:49:06,VALID,918.633,VALID,0.0,VALID,99.581,VALID,0.005,VALID,19.238,INVALID,360.0,VALID,0.0,
2019-08-28, 01:50:06,VALID,918.646,VALID,0.0,VALID,99.588,VALID,0.015,VALID,19.254,INVALID,360.0,VALID,0.0,
2019-08-28, 01:51:06,VALID,918.645,VALID,0.0,VALID,99.594,VALID,0.03,VALID,19.25,INVALID,360.0,VALID,0.0,
2019-08-28, 01:52:06,VALID,918.651,VALID,0.0,VALID,99.616,VALID,0.029,VALID,19.27,INVALID,360.0,VALID,0.0,
2019-08-28, 01:53:06,VALID,918.629,VALID,0.0,VALID,99.656,VALID,0.026,VALID,19.302,INVALID,360.0,VALID,0.0,
2019-08-28, 01:54:06,VALID,918.633,VALID,0.0,VALID,99.67,VALID,0.038,VALID,19.305,INVALID,360.0,VALID,0.0,
2019-08-28, 01:55:06,VALID,918.621,VALID,0.0,VALID,99.664,VALID,0.031,VALID,19.309,INVALID,360.0,VALID,0.0,
2019-08-28, 01:56:06,VALID,918.595,VALID,0.0,VALID,99.655,VALID,0.043,VALID,19.3,INVALID,360.0,VALID,0.0,
2019-08-28, 01:57:06,VALID,918.581,VALID,0.0,VALID,99.654,VALID,0.044,VALID,19.283,INVALID,360.0,VALID,0.0,
2019-08-28, 01:58:06,VALID,918.559,VALID,0.0,VALID,99.666,VALID,0.037,VALID,19.258,INVALID,360.0,VALID,0.0,
2019-08-28, 01:59:06,VALID,918.535,VALID,0.0,VALID,99.667,VALID,0.048,VALID,19.257,INVALID,360.0,VALID,0.0,
2019-08-28, 02:00:06,VALID,918.541,VALID,0.0,VALID,99.663,VALID,0.037,VALID,19.258,INVALID,360.0,VALID,0.0,
2019-08-28, 02:01:06,VALID,918.542,VALID,0.0,VALID,99.672,VALID,0.047,VALID,19.256,INVALID,360.0,VALID,0.0,
2019-08-28, 02:02:06,VALID,918.537,VALID,0.0,VALID,99.674,VALID,0.036,VALID,19.243,INVALID,360.0,VALID,0.0,
2019-08-28, 02:03:06,VALID,918.545,VALID,0.0,VALID,99.657,VALID,0.058,VALID,19.218,INVALID,360.0,VALID,0.0,
2019-08-28, 02:04:06,VALID,918.533,VALID,0.0,VALID,99.667,VALID,0.013,VALID,19.229,INVALID,360.0,VALID,0.0,
2019-08-28, 02:05:06,VALID,918.563,VALID,0.0,VALID,99.694,VALID,0.016,VALID,19.236,INVALID,360.0,VALID,0.0,
2019-08-28, 02:06:06,VALID,918.541,VALID,0.0,VALID,99.71,VALID,0.022,VALID,19.254,INVALID,360.0,VALID,0.0,
2019-08-28, 02:07:06,VALID,918.535,VALID,0.0,VALID,99.706,VALID,0.018,VALID,19.269,INVALID,360.0,VALID,0.0,
2019-08-28, 02:08:06,VALID,918.54,VALID,0.0,VALID,99.728,VALID,0.037,VALID,19.285,INVALID,360.0,VALID,0.0,
2019-08-28, 02:09:06,VALID,918.533,VALID,0.0,VALID,99.716,VALID,0.006,VALID,19.286,INVALID,360.0,VALID,0.0,
2019-08-28, 02:10:06,VALID,918.514,VALID,0.0,VALID,99.725,VALID,0.029,VALID,19.267,INVALID,360.0,VALID,0.0,
2019-08-28, 02:11:06,VALID,918.494,VALID,0.0,VALID,99.739,VALID,0.02,VALID,19.25,INVALID,360.0,VALID,0.0,
2019-08-28, 02:12:06,VALID,918.492,VALID,0.0,VALID,99.717,VALID,0.032,VALID,19.211,INVALID,360.0,VALID,0.0,
2019-08-28, 02:13:06,VALID,918.48,VALID,0.0,VALID,99.705,VALID,0.035,VALID,19.179,VALID,47.0,VALID,0.0,
2019-08-28, 02:14:06,VALID,918.479,VALID,0.2,VALID,99.695,VALID,0.027,VALID,19.172,VALID,47.0,VALID,0.0,
2019-08-28, 02:15:06,VALID,918.489,VALID,0.0,VALID,99.716,VALID,0.037,VALID,19.176,VALID,47.0,VALID,0.0,
2019-08-28, 02:16:06,VALID,918.492,VALID,0.0,VALID,99.722,VALID,0.03,VALID,19.185,VALID,47.0,VALID,0.0,
2019-08-28, 02:17:06,VALID,918.498,VALID,0.0,VALID,99.722,VALID,0.018,VALID,19.188,VALID,47.0,VALID,0.0,
2019-08-28, 02:18:06,VALID,918.497,VALID,0.0,VALID,99.72,VALID,0.029,VALID,19.201,VALID,46.0,VALID,0.0,
2019-08-28, 02:19:06,VALID,918.471,VALID,0.0,VALID,99.727,VALID,0.016,VALID,19.211,VALID,46.0,VALID,0.0,
2019-08-28, 02:20:06,VALID,918.479,VALID,0.0,VALID,99.731,VALID,-0.0,VALID,19.201,VALID,46.0,VALID,0.0,
2019-08-28, 02:21:06,VALID,918.483,VALID,0.0,VALID,99.751,VALID,0.008,VALID,19.199,VALID,46.0,VALID,0.0,
2019-08-28, 02:22:06,VALID,918.472,VALID,0.0,VALID,99.748,VALID,0.006,VALID,19.219,VALID,46.0,VALID,0.0,
2019-08-28, 02:23:06,VALID,918.475,VALID,0.0,VALID,99.749,VALID,0.011,VALID,19.219,VALID,46.0,VALID,0.0,
2019-08-28, 02:24:06,VALID,918.482,VALID,0.0,VALID,99.742,VALID,0.02,VALID,19.194,VALID,46.0,VALID,0.0,
2019-08-28, 02:25:06,VALID,918.492,VALID,0.0,VALID,99.758,VALID,0.018,VALID,19.198,VALID,45.0,VALID,0.0,
2019-08-28, 02:26:06,VALID,918.489,VALID,0.0,VALID,99.757,VALID,0.017,VALID,19.203,VALID,45.0,VALID,0.0,
2019-08-28, 02:27:06,VALID,918.496,VALID,0.0,VALID,99.764,VALID,0.009,VALID,19.211,INVALID,360.0,VALID,0.0,
2019-08-28, 02:28:06,VALID,918.507,VALID,0.0,VALID,99.784,VALID,-0.003,VALID,19.231,INVALID,360.0,VALID,0.0,
2019-08-28, 02:29:06,VALID,918.519,VALID,0.0,VALID,99.774,VALID,-0.001,VALID,19.209,INVALID,360.0,VALID,0.0,
2019-08-28, 02:30:06,VALID,918.51,VALID,0.0,VALID,99.758,VALID,0.015,VALID,19.174,INVALID,360.0,VALID,0.0,
2019-08-28, 02:31:06,VALID,918.506,VALID,0.0,VALID,99.743,VALID,-0.009,VALID,19.154,INVALID,360.0,VALID,0.0,
2019-08-28, 02:32:06,VALID,918.483,VALID,0.0,VALID,99.732,VALID,0.016,VALID,19.151,INVALID,360.0,VALID,0.0,
2019-08-28, 02:33:06,VALID,918.463,VALID,0.0,VALID,99.75,VALID,-0.007,VALID,19.153,INVALID,360.0,VALID,0.0,
2019-08-28, 02:34:06,VALID,918.472,VALID,0.0,VALID,99.717,VALID,-0.0,VALID,19.14,INVALID,360.0,VALID,0.0,
2019-08-28, 02:35:06,VALID,918.452,VALID,0.0,VALID,99.727,VALID,-0.001,VALID,19.128,INVALID,360.0,VALID,0.0,
2019-08-28, 02:36:06,VALID,918.445,VALID,0.0,VALID,99.711,VALID,0.006,VALID,19.145,INVALID,360.0,VALID,0.0,
2019-08-28, 02:37:06,VALID,918.431,VALID,0.0,VALID,99.693,VALID,0.017,VALID,19.137,INVALID,360.0,VALID,0.0,
2019-08-28, 02:38:06,VALID,918.436,VALID,0.0,VALID,99.672,VALID,0.01,VALID,19.141,INVALID,360.0,VALID,0.0,
2019-08-28, 02:39:06,VALID,918.445,VALID,0.0,VALID,99.674,VALID,-0.005,VALID,19.147,INVALID,360.0,VALID,0.0,
2019-08-28, 02:40:06,VALID,918.448,VALID,0.0,VALID,99.679,VALID,0.004,VALID,19.175,INVALID,360.0,VALID,0.0,
2019-08-28, 02:41:06,VALID,918.454,VALID,0.0,VALID,99.689,VALID,0.005,VALID,19.222,INVALID,360.0,VALID,0.0,
2019-08-28, 02:42:06,VALID,918.465,VALID,0.0,VALID,99.672,VALID,0.008,VALID,19.207,INVALID,360.0,VALID,0.0,
2019-08-28, 02:43:06,VALID,918.491,VALID,0.0,VALID,99.617,VALID,-0.005,VALID,19.18,INVALID,360.0,VALID,0.0,
2019-08-28, 02:44:06,VALID,918.475,VALID,0.0,VALID,99.609,VALID,0.008,VALID,19.173,INVALID,360.0,VALID,0.0,
2019-08-28, 02:45:06,VALID,918.495,VALID,0.0,VALID,99.536,VALID,-0.009,VALID,19.137,INVALID,360.0,VALID,0.0,
2019-08-28, 02:46:06,VALID,918.484,VALID,0.0,VALID,99.534,VALID,0.005,VALID,19.119,INVALID,360.0,VALID,0.0,
2019-08-28, 02:47:06,VALID,918.494,VALID,0.0,VALID,99.539,VALID,0.003,VALID,19.096,INVALID,360.0,VALID,0.0,
2019-08-28, 02:48:06,VALID,918.475,VALID,0.0,VALID,99.555,VALID,0.008,VALID,19.1,INVALID,360.0,VALID,0.0,
2019-08-28, 02:49:06,VALID,918.462,VALID,0.0,VALID,99.588,VALID,-0.004,VALID,19.11,INVALID,360.0,VALID,0.0,
2019-08-28, 02:50:06,VALID,918.434,VALID,0.0,VALID,99.6,VALID,0.023,VALID,19.091,INVALID,360.0,VALID,0.0,
2019-08-28, 02:51:06,VALID,918.427,VALID,0.0,VALID,99.627,VALID,0.023,VALID,19.085,INVALID,360.0,VALID,0.0,
2019-08-28, 02:52:06,VALID,918.411,VALID,0.0,VALID,99.64,VALID,0.008,VALID,19.073,INVALID,360.0,VALID,0.0,
2019-08-28, 02:53:06,VALID,918.415,VALID,0.0,VALID,99.674,VALID,0.017,VALID,19.071,INVALID,360.0,VALID,0.0,
2019-08-28, 02:54:06,VALID,918.409,VALID,0.0,VALID,99.654,VALID,0.024,VALID,19.064,INVALID,360.0,VALID,0.0,
2019-08-28, 02:55:06,VALID,918.391,VALID,0.0,VALID,99.696,VALID,0.029,VALID,19.059,INVALID,360.0,VALID,0.0,
2019-08-28, 02:56:06,VALID,918.388,VALID,0.0,VALID,99.692,VALID,0.025,VALID,19.051,INVALID,360.0,VALID,0.0,
2019-08-28, 02:57:06,VALID,918.399,VALID,0.0,VALID,99.708,VALID,0.025,VALID,19.052,INVALID,360.0,VALID,0.0,
2019-08-28, 02:58:06,VALID,918.389,VALID,0.0,VALID,99.741,VALID,-0.009,VALID,19.065,INVALID,360.0,VALID,0.0,
2019-08-28, 02:59:06,VALID,918.41,VALID,0.0,VALID,99.747,VALID,0.017,VALID,19.079,INVALID,360.0,VALID,0.0,
2019-08-28, 03:00:06,VALID,918.417,VALID,0.0,VALID,99.79,VALID,0.022,VALID,19.111,INVALID,360.0,VALID,0.0,
2019-08-28, 03:01:06,VALID,918.424,VALID,0.0,VALID,99.802,VALID,0.012,VALID,19.116,INVALID,360.0,VALID,0.0,
2019-08-28, 03:02:06,VALID,918.405,VALID,0.0,VALID,99.805,VALID,0.008,VALID,19.117,INVALID,360.0,VALID,0.0,
2019-08-28, 03:03:06,VALID,918.379,VALID,0.0,VALID,99.817,VALID,0.019,VALID,19.115,INVALID,360.0,VALID,0.0,
2019-08-28, 03:04:06,VALID,918.381,VALID,0.0,VALID,99.821,VALID,0.012,VALID,19.113,INVALID,360.0,VALID,0.0,
2019-08-28, 03:05:06,VALID,918.362,VALID,0.0,VALID,99.817,VALID,0.0,VALID,19.101,INVALID,360.0,VALID,0.0,
2019-08-28, 03:06:06,VALID,918.346,VALID,0.0,VALID,99.835,VALID,-0.008,VALID,19.104,INVALID,360.0,VALID,0.0,
2019-08-28, 03:07:06,VALID,918.33,VALID,0.0,VALID,99.828,VALID,0.009,VALID,19.103,INVALID,360.0,VALID,0.0,
2019-08-28, 03:08:06,VALID,918.341,VALID,0.0,VALID,99.843,VALID,-0.009,VALID,19.106,INVALID,360.0,VALID,0.0,
2019-08-28, 03:09:06,VALID,918.335,VALID,0.0,VALID,99.845,VALID,-0.018,VALID,19.09,INVALID,360.0,VALID,0.0,
2019-08-28, 03:10:06,VALID,918.339,VALID,0.0,VALID,99.844,VALID,-0.003,VALID,19.08,INVALID,360.0,VALID,0.0,
2019-08-28, 03:11:06,VALID,918.345,VALID,0.0,VALID,99.866,VALID,-0.0,VALID,19.092,INVALID,360.0,VALID,0.0,
2019-08-28, 03:12:06,VALID,918.346,VALID,0.0,VALID,99.86,VALID,-0.015,VALID,19.088,INVALID,360.0,VALID,0.0,
2019-08-28, 03:13:06,VALID,918.345,VALID,0.0,VALID,99.866,VALID,-0.014,VALID,19.08,INVALID,360.0,VALID,0.0,
2019-08-28, 03:14:06,VALID,918.363,VALID,0.0,VALID,99.894,VALID,-0.026,VALID,19.085,INVALID,360.0,VALID,0.0,
2019-08-28, 03:15:06,VALID,918.367,VALID,0.0,VALID,99.877,VALID,-0.019,VALID,19.092,INVALID,360.0,VALID,0.0,
2019-08-28, 03:16:06,VALID,918.35,VALID,0.0,VALID,99.892,VALID,-0.029,VALID,19.085,INVALID,360.0,VALID,0.0,
2019-08-28, 03:17:06,VALID,918.352,VALID,0.0,VALID,99.905,VALID,-0.029,VALID,19.09,INVALID,360.0,VALID,0.0,
2019-08-28, 03:18:06,VALID,918.349,VALID,0.0,VALID,99.904,VALID,-0.016,VALID,19.102,INVALID,360.0,VALID,0.0,
2019-08-28, 03:19:06,VALID,918.311,VALID,0.0,VALID,99.89,VALID,-0.01,VALID,19.098,INVALID,360.0,VALID,0.0,
2019-08-28, 03:20:06,VALID,918.277,VALID,0.0,VALID,99.901,VALID,0.016,VALID,19.075,INVALID,360.0,VALID,0.0,
2019-08-28, 03:21:06,VALID,918.272,VALID,0.0,VALID,99.888,VALID,0.015,VALID,19.053,INVALID,360.0,VALID,0.0,
2019-08-28, 03:22:06,VALID,918.245,VALID,0.0,VALID,99.876,VALID,0.016,VALID,19.037,INVALID,360.0,VALID,0.0,
2019-08-28, 03:23:06,VALID,918.243,VALID,0.0,VALID,99.89,VALID,0.021,VALID,19.041,VALID,46.0,VALID,0.0,
2019-08-28, 03:24:06,VALID,918.237,VALID,0.0,VALID,99.907,VALID,0.007,VALID,19.046,VALID,46.0,VALID,0.0,
2019-08-28, 03:25:06,VALID,918.229,VALID,0.0,VALID,99.9,VALID,0.019,VALID,19.033,VALID,45.0,VALID,0.0,
2019-08-28, 03:26:06,VALID,918.223,VALID,0.0,VALID,99.908,VALID,0.008,VALID,19.035,INVALID,360.0,VALID,0.0,
2019-08-28, 03:27:06,VALID,918.211,VALID,0.0,VALID,99.903,VALID,0.008,VALID,19.053,INVALID,360.0,VALID,0.0,
2019-08-28, 03:28:06,VALID,918.209,VALID,0.0,VALID,99.894,VALID,0.011,VALID,19.054,INVALID,360.0,VALID,0.0,
2019-08-28, 03:29:06,VALID,918.19,VALID,0.0,VALID,99.887,VALID,0.019,VALID,19.047,INVALID,360.0,VALID,0.0,
2019-08-28, 03:30:06,VALID,918.192,VALID,0.0,VALID,99.895,VALID,0.021,VALID,19.063,VALID,45.0,VALID,0.0,
2019-08-28, 03:31:06,VALID,918.171,VALID,0.0,VALID,99.911,VALID,-0.011,VALID,19.085,INVALID,360.0,VALID,0.0,
2019-08-28, 03:32:06,VALID,918.162,VALID,0.0,VALID,99.906,VALID,0.018,VALID,19.103,VALID,47.0,VALID,0.0,
2019-08-28, 03:33:06,VALID,918.158,VALID,0.0,VALID,99.91,VALID,0.02,VALID,19.108,VALID,47.0,VALID,0.0,
2019-08-28, 03:34:06,VALID,918.129,VALID,0.0,VALID,99.902,VALID,0.005,VALID,19.104,INVALID,360.0,VALID,0.0,
2019-08-28, 03:35:06,VALID,918.119,VALID,0.0,VALID,99.91,VALID,-0.006,VALID,19.093,VALID,46.0,VALID,0.0,
2019-08-28, 03:36:06,VALID,918.107,VALID,0.0,VALID,99.912,VALID,0.009,VALID,19.087,VALID,46.0,VALID,0.0,
2019-08-28, 03:37:06,VALID,918.099,VALID,0.0,VALID,99.911,VALID,0.004,VALID,19.071,VALID,45.0,VALID,0.0,
2019-08-28, 03:38:06,VALID,918.116,VALID,0.0,VALID,99.91,VALID,0.017,VALID,19.065,INVALID,360.0,VALID,0.0,
2019-08-28, 03:39:06,VALID,918.125,VALID,0.0,VALID,99.911,VALID,0.014,VALID,19.085,INVALID,360.0,VALID,0.0,